Terug naar catalogus

INMARSAT 2-F2 R/B

PAM-D

ActiefHEO
NORAD 21151·ROCKET BODY·🇺🇸 United States

Gelanceerd Mar 8, 1991 vanaf Cape Canaveral Space Force Station

Loading…

Volgende Passages (komende 24 uur)

TLE

VersSource: Space-Track

Epoch: Sep 14, 2026, 13:45 UTC

1 21151U 91018C   26257.57307086  .00012412  00000-0  81317-3 0  9990
2 21151  23.1932  86.4390 3875768  15.6334 353.6096  7.65862552746047

Volg INMARSAT 2-F2 R/B in realtime met AllMySat

Download on the App Store